[[{"header":{"parameterUnit":"m.s-1","parameterCategory":2,"la1":30.2991,"la2":30.254,"lo1":-89.0895,"lo2":-89.0444,"dy":0.0017,"dx":0.0017,"nx":28,"ny":28,"refTime":"2024-11-24T09:00:00:Z","depth":"0","parameterNumber":2,"parameterNumberName":"U-component_of_CURRENTS"},"data":[0,0,0,0,0,0,0,0,0,0,0,0,0,0,0,0,0,0,0,0,0,0,0,0,0,0,0,0,0,0,0,0,0,0,0,0,0,0,0,0,0,0,0,0,0,0,0,0,0,0,0,0,0,0,0,0,0,0,0.1858,0.1859,0,0.1937,0.1938,0.1938,0.1893,0.1892,0.189,0.1889,0.1871,0.1872,0.1873,0,0,0,0,0,0,0,0,0,0,0,0,0,0.1745,0.1746,0.1858,0.1859,0.1861,0.1937,0.1938,0.1938,0.1894,0.1892,0.189,0.1888,0.1871,0.1872,0.1873,0,0,0,0,0,0,0,0,0,0,0,0,0,0.1799,0.1747,0.1857,0.1854,0.1855,0.1937,0.1938,0.1938,0.1894,0.1892,0.189,0.1887,0.1871,0.1872,0.1874,0.1927,0,0,0.1878,0.1878,0,0,0,0,0,0,0,0,0.1796,0.1802,0.1853,0.1854,0.1856,0.191,0.1892,0.1932,0.1895,0.1871,0.1889,0.1886,0.1882,0.1882,0.1893,0.1927,0.1926,0.1878,0.1879,0.1879,0.188,0,0,0,0,0,0,0,0.1792,0.1799,0.1881,0.1855,0.1857,0.1876,0.1879,0.19,0.188,0.1873,0.1872,0.1894,0.1881,0.1892,0.1892,0.1926,0.1878,0.1879,0.188,0.1881,0.2035,0.2038,0,0,0,0,0,0,0.1796,0.1795,0.1879,0.1885,0.1828,0.1879,0.1883,0.1888,0.1882,0.1882,0.1895,0.1891,0.189,0.189,0.1891,0.1961,0.1879,0.1881,0.1881,0.2032,0.2036,0.2039,0,0,0,0,0,0,0.1793,0.1802,0.1876,0.1849,0.186,0.1884,0.189,0.1891,0.1902,0.1902,0.1898,0.1905,0.1889,0.1889,0.1919,0.1959,0.1881,0.1883,0.2028,0.2033,0.2038,0.2095,0,0,0,0,0,0,0.1789,0.18,0.1802,0.1848,0.1862,0.1926,0.1894,0.1895,0.1923,0.1918,0.191,0.1906,0.1887,0.1918,0.1921,0.1959,0.1884,0.2024,0.203,0.2036,0.2089,0.2102,0.2112,0,0,0,0,0,0.1785,0.1801,0.1801,0.1812,0.1864,0.1928,0.1936,0.1941,0.1926,0.1939,0.1939,0.1906,0.1959,0.1921,0.1924,0.1964,0.2021,0.2028,0.2035,0.2084,0.2099,0.2112,0,0,0,0,0,0,0.1788,0.1801,0.18,0.1829,0.1876,0.1923,0.1949,0.1953,0.1967,0.1957,0.1941,0.1939,0.1978,0.1979,0.1938,0.2033,0.1989,0.1997,0.2025,0.2039,0.205,0.2003,0.1885,0,0,0,0,0,0.1785,0.1773,0.1825,0.1851,0.1879,0.1916,0.1942,0.1948,0.1975,0.1977,0.1975,0.1988,0.2017,0.203,0.2044,0.21,0.21,0.2134,0.2146,0.2155,0.2124,0.2186,0.2199,0.2063,0.2063,0.2063,0,0,0.18,0.1805,0.1804,0.1847,0.1884,0.1928,0.1923,0.1973,0.1995,0.1976,0.2001,0.202,0.204,0.2091,0.2112,0.2092,0.2204,0.2164,0.2171,0.2134,0.2195,0.2208,0.2219,0.2068,0.2067,0.2067,0,0,0.1827,0.1831,0.1833,0.1869,0.1921,0.1946,0.1964,0.2014,0.202,0.2061,0.2059,0.21,0.2137,0.2162,0.2181,0.2273,0.2256,0.2296,0.2317,0.238,0.239,0.2399,0.2445,0.2458,0.2309,0.2309,0.2309,0,0.1861,0.185,0.1857,0.1885,0.1919,0.1956,0.1998,0.2023,0.2069,0.2082,0.207,0.2148,0.2166,0.2237,0.2267,0.2293,0.2319,0.2257,0.2391,0.2399,0.2407,0.2452,0.2465,0.2312,0.2312,0.2312,0.2311,0,0.1869,0.1888,0.1912,0.1932,0.1972,0.2021,0.2066,0.2094,0.2106,0.2125,0.2182,0.2218,0.2257,0.2299,0.2303,0.239,0.2388,0.239,0.2343,0.2424,0.2467,0.248,0.2318,0.2316,0.2315,0.2314,0,0,0.1911,0.1912,0.1922,0.1941,0.1997,0.2038,0.2083,0.2136,0.2161,0.2198,0.2234,0.2304,0.2312,0.2335,0.2372,0.2429,0.2528,0.2433,0.2434,0.2453,0.2662,0.2666,0.2679,0.2557,0.2559,0.2561,0.2679,0,0.1935,0.1955,0.1953,0.2015,0.2053,0.209,0.2129,0.2172,0.2203,0.2244,0.2288,0.2335,0.2334,0.2369,0.2424,0.2493,0.2558,0.2494,0.2599,0.2602,0.2575,0.2692,0.2601,0.2698,0.269,0.2692,0.2694,0,0.1938,0.1957,0.1992,0.2043,0.2066,0.2101,0.2164,0.2202,0.2261,0.2282,0.2326,0.2352,0.2431,0.2426,0.2556,0.2517,0.2584,0.2637,0.2643,0.2619,0.2627,0.2614,0.272,0.2564,0.2712,0.271,0.2709,0,0.1934,0.1986,0.1999,0.2023,0.209,0.2115,0.2152,0.2211,0.2239,0.2308,0.2331,0.2409,0.2452,0.2541,0.2621,0.2606,0.2759,0.276,0.2827,0.2828,0.2751,0.2742,0.2688,0.2861,0.2861,0.286,0.286,0,0.1947,0.199,0.1996,0.2024,0.2068,0.2111,0.2159,0.2204,0.2256,0.2294,0.2344,0.2396,0.2483,0.2568,0.2645,0.2766,0.2784,0.2837,0.2867,0.2775,0.2767,0.2626,0.2559,0.2865,0.2864,0.2863,0.2862,0,0.1983,0.1968,0.2014,0.2057,0.2068,0.2107,0.2157,0.2184,0.2236,0.2289,0.2311,0.2398,0.2518,0.2603,0.2758,0.2798,0.2837,0.2959,0.2833,0.2846,0.2758,0.27,0.264,0.26,0.306,0.3061,0.3062,0,0.2006,0.2018,0.2034,0.2033,0.2062,0.2104,0.2122,0.2174,0.2198,0.2298,0.2321,0.2441,0.2534,0.2738,0.285,0.2995,0.287,0.297,0.2927,0.2746,0.2703,0.2598,0.256,0.2863,0.2862,0.2861,0.2861,0,0.2085,0.2065,0.2083,0.2063,0.2067,0.2087,0.2117,0.2129,0.219,0.2245,0.2338,0.2427,0.2622,0.2724,0.2888,0.2971,0.2798,0.2961,0.2808,0.2571,0.2418,0.2394,0.2778,0.2854,0.2855,0.2855,0.2856,0.2856,0.2133,0.2139,0.2097,0.2091,0.2073,0.2057,0.2073,0.2096,0.2141,0.2209,0.2318,0.2424,0.2539,0.2782,0.2828,0.2782,0.2819,0.2705,0.2662,0.2581,0.2486,0.2851,0.2938,0.2939,0.294,0.2941,0.2941,0,0.2165,0.2135,0.2123,0.2076,0.2039,0.204,0.2051,0.2059,0.2095,0.2179,0.2268,0.2353,0.2432,0.2495,0.2519,0.2448,0.2396,0.2364,0.2154,0.215,0.2501,0.2431,0.2368,0.2368,0.2368,0.2368,0.2368,0.2368,0.2155,0.2134,0.2112,0.2035,0.2004,0.1965,0.1966,0.1986,0.2037,0.2078,0.2108,0.2165,0.2172,0.2127,0.2023,0.2019,0.1862,0.1831,0.1831,0.1998,0.2023,0.2048,0.1963,0.1802,0.1802,0.1413,0.141,0.1407]},{"header":{"parameterUnit":"m.s-1","parameterCategory":2,"la1":30.2991,"la2":30.254,"lo1":-89.0895,"lo2":-89.0444,"dy":0.0017,"dx":0.0017,"nx":28,"ny":28,"refTime":"2024-11-24T09:00:00:Z","depth":"0","parameterNumber":3,"parameterNumberName":"V-component_of_CURRENTS"},"data":[0,0,0,0,0,0,0,0,0,0,0,0,0,0,0,0,0,0,0,0,0,0,0,0,0,0,0,0,0,0,0,0,0,0,0,0,0,0,0,0,0,0,0,0,0,0,0,0,0,0,0,0,0,0,0,0,0,0,-0.0761,-0.0762,0,-0.0774,-0.0774,-0.0774,-0.0808,-0.0809,-0.081,-0.0811,-0.0896,-0.0897,-0.0899,0,0,0,0,0,0,0,0,0,0,0,0,0,-0.0784,-0.0783,-0.0761,-0.0762,-0.0762,-0.0774,-0.0774,-0.0774,-0.0808,-0.0809,-0.081,-0.0811,-0.0895,-0.0897,-0.0899,0,0,0,0,0,0,0,0,0,0,0,0,0,-0.0782,-0.0783,-0.0761,-0.078,-0.0782,-0.0774,-0.0774,-0.0774,-0.0808,-0.0809,-0.081,-0.0811,-0.0894,-0.0897,-0.0899,-0.089,0,0,-0.0906,-0.0907,0,0,0,0,0,0,0,0,-0.0782,-0.0782,-0.0777,-0.0779,-0.0781,-0.0791,-0.0813,-0.0817,-0.0808,-0.0798,-0.0811,-0.0812,-0.0867,-0.0871,-0.087,-0.0894,-0.0898,-0.0906,-0.0908,-0.0909,-0.0909,0,0,0,0,0,0,0,-0.0783,-0.0781,-0.0766,-0.0778,-0.078,-0.0795,-0.0795,-0.0814,-0.0827,-0.0799,-0.0801,-0.0803,-0.0868,-0.0867,-0.0872,-0.0899,-0.0906,-0.0908,-0.091,-0.0911,-0.092,-0.0919,0,0,0,0,0,0,-0.0779,-0.0781,-0.0766,-0.0766,-0.0785,-0.0793,-0.0794,-0.0786,-0.0825,-0.0831,-0.0802,-0.0805,-0.0863,-0.0869,-0.0875,-0.0867,-0.0909,-0.0911,-0.0912,-0.0921,-0.092,-0.0919,0,0,0,0,0,0,-0.078,-0.0777,-0.0765,-0.0775,-0.0775,-0.0791,-0.0783,-0.0786,-0.0787,-0.0827,-0.0835,-0.08,-0.0864,-0.0872,-0.0882,-0.0871,-0.0912,-0.0914,-0.0923,-0.0921,-0.0919,-0.0851,0,0,0,0,0,0,-0.078,-0.0777,-0.0767,-0.0774,-0.0774,-0.0759,-0.0782,-0.0786,-0.0787,-0.079,-0.0828,-0.0836,-0.0865,-0.0879,-0.0885,-0.0875,-0.0916,-0.0924,-0.0922,-0.092,-0.0854,-0.0847,-0.084,0,0,0,0,0,-0.0781,-0.0761,-0.0766,-0.0764,-0.076,-0.0759,-0.0759,-0.0776,-0.0785,-0.0781,-0.08,-0.0835,-0.087,-0.0879,-0.0887,-0.0877,-0.0925,-0.0922,-0.092,-0.0857,-0.0848,-0.084,0,0,0,0,0,0,-0.0787,-0.0763,-0.0769,-0.0749,-0.0754,-0.0765,-0.076,-0.0769,-0.0778,-0.0784,-0.082,-0.0829,-0.0835,-0.086,-0.087,-0.0872,-0.0903,-0.0902,-0.0853,-0.0845,-0.0838,-0.0826,-0.0918,0,0,0,0,0,-0.0777,-0.0744,-0.0747,-0.0735,-0.0733,-0.0744,-0.0744,-0.0755,-0.0765,-0.0771,-0.0793,-0.0815,-0.0827,-0.084,-0.0857,-0.0858,-0.0869,-0.0856,-0.0849,-0.0843,-0.0837,-0.084,-0.0833,-0.091,-0.091,-0.091,0,0,-0.0782,-0.0761,-0.0749,-0.0731,-0.0736,-0.0729,-0.0747,-0.0745,-0.0737,-0.0779,-0.0773,-0.0792,-0.0821,-0.082,-0.0825,-0.0843,-0.0822,-0.084,-0.0834,-0.0831,-0.0836,-0.0829,-0.0822,-0.0909,-0.0909,-0.0909,0,0,-0.077,-0.0753,-0.0724,-0.0719,-0.0713,-0.0714,-0.0711,-0.0716,-0.0715,-0.0711,-0.0734,-0.0739,-0.0764,-0.0775,-0.0786,-0.0749,-0.0784,-0.0759,-0.0718,-0.072,-0.0714,-0.0709,-0.0694,-0.0689,-0.0758,-0.0757,-0.0757,0,-0.0789,-0.0744,-0.0722,-0.0702,-0.0698,-0.0705,-0.0696,-0.0688,-0.0695,-0.0688,-0.0704,-0.0714,-0.0741,-0.0732,-0.0718,-0.0734,-0.0737,-0.0748,-0.0711,-0.0707,-0.0702,-0.0689,-0.0683,-0.0754,-0.0754,-0.0755,-0.0755,0,-0.0749,-0.0728,-0.0715,-0.0681,-0.0673,-0.0666,-0.0657,-0.0644,-0.0643,-0.0642,-0.0629,-0.0649,-0.0661,-0.0662,-0.0681,-0.066,-0.067,-0.0701,-0.0733,-0.069,-0.0679,-0.0674,-0.0749,-0.075,-0.0751,-0.0752,0,0,-0.0776,-0.0702,-0.0703,-0.0686,-0.0662,-0.0655,-0.0627,-0.0606,-0.0588,-0.0584,-0.0561,-0.0568,-0.058,-0.0591,-0.061,-0.0605,-0.0571,-0.0635,-0.0636,-0.0619,-0.0561,-0.0527,-0.0519,-0.0598,-0.0597,-0.0597,-0.0558,0,-0.0769,-0.0715,-0.068,-0.0655,-0.0637,-0.0623,-0.0596,-0.0576,-0.0561,-0.0536,-0.0535,-0.0528,-0.0552,-0.0556,-0.0551,-0.0572,-0.0559,-0.0578,-0.0606,-0.0606,-0.0581,-0.0513,-0.0422,-0.0376,-0.0554,-0.0553,-0.0553,0,-0.0749,-0.0713,-0.0675,-0.0631,-0.0624,-0.0608,-0.0568,-0.0546,-0.0507,-0.0495,-0.0478,-0.0482,-0.0466,-0.0497,-0.0496,-0.0508,-0.0524,-0.0535,-0.0535,-0.0525,-0.0563,-0.0452,-0.0362,-0.0413,-0.0546,-0.0546,-0.0547,0,-0.0762,-0.0715,-0.0678,-0.0667,-0.0617,-0.0599,-0.0576,-0.0537,-0.0504,-0.047,-0.0444,-0.0436,-0.0424,-0.0443,-0.0457,-0.0482,-0.0448,-0.0495,-0.0472,-0.047,-0.0408,-0.0402,-0.037,-0.0486,-0.0486,-0.0486,-0.0486,0,-0.0757,-0.074,-0.0682,-0.0666,-0.0629,-0.0602,-0.056,-0.0533,-0.0484,-0.0425,-0.0429,-0.0376,-0.0411,-0.0394,-0.0427,-0.0416,-0.0429,-0.044,-0.0451,-0.0379,-0.0371,-0.0429,-0.0479,-0.0485,-0.0485,-0.0485,-0.0485,0,-0.0775,-0.0736,-0.0698,-0.0646,-0.063,-0.0605,-0.0543,-0.0503,-0.047,-0.0389,-0.0373,-0.0327,-0.0293,-0.0316,-0.033,-0.0365,-0.037,-0.0371,-0.0271,-0.027,-0.0309,-0.0359,-0.0331,-0.0328,-0.0339,-0.0338,-0.0337,0,-0.077,-0.0748,-0.0686,-0.0652,-0.0627,-0.0585,-0.0542,-0.0499,-0.044,-0.034,-0.0286,-0.0234,-0.0144,-0.0146,-0.0196,-0.0223,-0.0293,-0.0193,-0.0227,-0.027,-0.0335,-0.0372,-0.0376,-0.0111,-0.0108,-0.0106,-0.0104,0,-0.0764,-0.0742,-0.0704,-0.0634,-0.0585,-0.0523,-0.0456,-0.0403,-0.0322,-0.0238,-0.01,-0.0021,0.0003,0.0058,-0.0001,-0.0046,-0.0191,-0.0149,-0.0217,-0.016,-0.0173,-0.0189,-0.0179,-0.0084,-0.0086,-0.0088,-0.0089,-0.009,-0.0755,-0.0725,-0.066,-0.0595,-0.0537,-0.0437,-0.0357,-0.0261,-0.0137,0.0058,0.0077,0.0278,0.0281,0.0239,0.0135,0.0005,-0.0049,-0.0024,-0.008,-0.0113,-0.0106,-0.0043,0.0044,0.0043,0.0042,0.0041,0.004,0,-0.0711,-0.0667,-0.0612,-0.0513,-0.0425,-0.0402,-0.027,-0.0153,0.0037,0.0241,0.04,0.0599,0.0563,0.0446,0.0252,0.0113,0.0043,0.0028,-0.0005,-0.0015,0.0038,0.0052,0.0174,0.0174,0.0174,0.0174,0.0174,0.0174,-0.067,-0.0602,-0.0569,-0.0414,-0.0338,-0.0181,-0.008,0.0085,0.0265,0.06,0.0826,0.0962,0.0912,0.0472,0.0185,0.0101,-0.0015,-0.0005,-0.0109,-0.0088,-0.0097,-0.0107,-0.0105,-0.0018,-0.0018,-0.0094,-0.0096,-0.0096]}],[{"header":{"parameterUnit":"m.s-1","parameterCategory":2,"la1":30.2991,"la2":30.254,"lo1":-89.0895,"lo2":-89.0444,"dy":0.0017,"dx":0.0017,"nx":28,"ny":28,"refTime":"2024-11-24T09:00:00:Z","depth":"2","parameterNumber":2,"parameterNumberName":"U-component_of_CURRENTS"},"data":[0,0,0,0,0,0,0,0,0,0,0,0,0,0,0,0,0,0,0,0,0,0,0,0,0,0,0,0,0,0,0,0,0,0,0,0,0,0,0,0,0,0,0,0,0,0,0,0,0,0,0,0,0,0,0,0,0,0,-0.0058,-0.0058,0,-0.0068,-0.0069,-0.0069,-0.0076,-0.0076,-0.0075,-0.0075,-0.0028,-0.0027,-0.0026,0,0,0,0,0,0,0,0,0,0,0,0,0,-0.0139,-0.0137,-0.0058,-0.0058,-0.0058,-0.0068,-0.0069,-0.0069,-0.0076,-0.0076,-0.0075,-0.0075,-0.0029,-0.0027,-0.0026,0,0,0,0,0,0,0,0,0,0,0,0,0,-0.0124,-0.0136,-0.0058,-0.0061,-0.0061,-0.0068,-0.0069,-0.0069,-0.0076,-0.0076,-0.0075,-0.0075,-0.0029,-0.0027,-0.0026,-0.0022,0,0,-0.0021,-0.002,0,0,0,0,0,0,0,0,-0.0125,-0.0121,-0.006,-0.006,-0.0061,-0.0068,-0.008,-0.0049,-0.0076,-0.0073,-0.0075,-0.0075,-0.0035,-0.0033,-0.004,-0.002,-0.0018,-0.0021,-0.002,-0.0019,-0.0019,0,0,0,0,0,0,0,-0.0126,-0.0121,-0.0065,-0.006,-0.006,-0.0093,-0.009,-0.0075,-0.0056,-0.0073,-0.0073,-0.007,-0.0035,-0.0041,-0.0039,-0.0017,-0.0021,-0.0019,-0.0018,-0.0018,0.0084,0.0085,0,0,0,0,0,0,-0.0114,-0.0122,-0.0064,-0.0065,-0.009,-0.0091,-0.0088,-0.0068,-0.0058,-0.0056,-0.007,-0.007,-0.0044,-0.004,-0.0037,0.0058,-0.0019,-0.0018,-0.0017,0.0082,0.0084,0.0086,0,0,0,0,0,0,-0.0115,-0.0108,-0.0064,-0.0093,-0.0089,-0.0089,-0.0067,-0.0068,-0.0058,-0.0056,-0.0053,-0.0057,-0.0044,-0.0039,-0.0002,0.0056,-0.0017,-0.0016,0.008,0.0083,0.0085,0.0191,0,0,0,0,0,0,-0.0117,-0.0108,-0.0091,-0.0091,-0.0087,-0.0052,-0.0067,-0.0069,-0.0057,-0.0057,-0.0043,-0.004,-0.0043,-0.0004,-0.0,0.0057,-0.0014,0.0078,0.0081,0.0084,0.0185,0.0197,0.0207,0,0,0,0,0,-0.012,-0.0097,-0.0089,-0.0083,-0.0062,-0.005,-0.0051,-0.0054,-0.0056,-0.0046,-0.0033,-0.004,0.002,-0.0002,0.0003,0.0062,0.0076,0.008,0.0084,0.018,0.0194,0.0206,0,0,0,0,0,0,-0.0125,-0.0095,-0.0087,-0.0055,-0.0045,-0.005,-0.0042,-0.0043,-0.0028,-0.0022,-0.0022,-0.0017,0.0037,0.0029,0.0006,0.0099,0.0049,0.0054,0.0121,0.0134,0.0145,0.0171,-0.0013,0,0,0,0,0,-0.0116,-0.0086,-0.007,-0.0044,-0.0035,-0.0035,-0.0031,-0.0028,-0.0017,-0.0011,0.0003,0.0022,0.0053,0.0076,0.009,0.0141,0.0168,0.0182,0.0193,0.0202,0.0226,0.0309,0.033,0.0099,0.0099,0.0099,0,0,-0.0112,-0.009,-0.0075,-0.0043,-0.0036,-0.0008,-0.0032,-0.0014,0.0021,-0.0006,0.0048,0.0056,0.0071,0.0129,0.0154,0.0135,0.0284,0.0207,0.0215,0.0234,0.0315,0.0338,0.0358,0.0101,0.0101,0.01,0,0,-0.0091,-0.0066,-0.0035,-0.0019,0.0005,0.0013,0.0026,0.0039,0.0058,0.01,0.0102,0.0151,0.0177,0.022,0.024,0.0319,0.033,0.0318,0.0408,0.0489,0.051,0.0528,0.0604,0.0628,0.0333,0.0333,0.0334,0,-0.0093,-0.0037,-0.0028,0.0005,0.0032,0.0032,0.0073,0.0091,0.0118,0.0161,0.0131,0.0224,0.023,0.0338,0.0363,0.0349,0.0389,0.036,0.0507,0.0525,0.0542,0.0615,0.064,0.0339,0.0338,0.0338,0.0337,0,-0.0028,-0.0,0.0018,0.0074,0.0101,0.0133,0.0167,0.0206,0.0227,0.0256,0.0351,0.0362,0.0426,0.0437,0.0423,0.0557,0.0545,0.0505,0.0479,0.0572,0.0642,0.0667,0.0347,0.0345,0.0343,0.0342,0,0,0.0046,0.0053,0.0085,0.0089,0.0144,0.0172,0.0249,0.0328,0.0393,0.043,0.0528,0.0587,0.06,0.0623,0.0626,0.0697,0.0844,0.0659,0.066,0.0744,0.1033,0.0929,0.0945,0.0831,0.0836,0.0839,0.1039,0,0.0105,0.0149,0.0175,0.0236,0.0244,0.0286,0.0357,0.043,0.0483,0.0571,0.063,0.07,0.067,0.0702,0.0779,0.0817,0.0911,0.0794,0.0922,0.0926,0.083,0.097,0.0828,0.0985,0.1063,0.1067,0.107,0,0.0206,0.021,0.0258,0.0281,0.0306,0.036,0.0488,0.0547,0.0671,0.0711,0.0811,0.0835,0.0965,0.0894,0.1071,0.0997,0.104,0.1064,0.1071,0.0955,0.0867,0.0901,0.1026,0.1111,0.1107,0.1104,0.1102,0,0.024,0.0294,0.0326,0.0339,0.0369,0.0433,0.0488,0.0605,0.0671,0.0806,0.0864,0.1003,0.1068,0.1159,0.1212,0.1155,0.1386,0.1307,0.1272,0.1264,0.1159,0.1133,0.1457,0.1457,0.1456,0.1456,0.1455,0,0.0273,0.0304,0.0343,0.0339,0.0432,0.0459,0.0571,0.0646,0.0759,0.0858,0.0936,0.1037,0.1134,0.1257,0.1295,0.1375,0.1468,0.1333,0.1326,0.1188,0.1165,0.1267,0.1242,0.1463,0.1461,0.146,0.1459,0,0.0254,0.0275,0.0309,0.0376,0.0415,0.0486,0.0593,0.0661,0.0769,0.0902,0.0947,0.1104,0.1266,0.1364,0.1518,0.1468,0.1551,0.1556,0.1383,0.1349,0.1357,0.1336,0.1544,0.1543,0.1541,0.154,0.1539,0,0.0232,0.0239,0.0339,0.0385,0.0411,0.0506,0.0566,0.0666,0.0735,0.0943,0.1009,0.1202,0.1318,0.1505,0.1488,0.1565,0.1617,0.1441,0.1289,0.1404,0.1376,0.1356,0.1337,0.1213,0.121,0.1207,0.1205,0,0.0199,0.0258,0.0283,0.0379,0.0454,0.0547,0.0638,0.0691,0.0825,0.0917,0.11,0.1209,0.1351,0.1357,0.1407,0.1413,0.1403,0.1376,0.1614,0.1173,0.1097,0.1066,0.1058,0.1179,0.1181,0.1183,0.1185,0.1186,0.0239,0.0261,0.0332,0.044,0.0511,0.0635,0.0698,0.0775,0.0895,0.1012,0.108,0.1164,0.1154,0.1157,0.1184,0.1203,0.1254,0.1175,0.1184,0.1195,0.1081,0.1002,0.1047,0.1049,0.105,0.1052,0.1053,0,0.0323,0.0352,0.0403,0.054,0.0618,0.0676,0.0787,0.0821,0.0942,0.0956,0.1019,0.0883,0.0888,0.0985,0.0937,0.0891,0.088,0.0896,0.0876,0.09,0.0922,0.0793,0.0685,0.0684,0.0684,0.0683,0,0,0.04,0.0439,0.0462,0.0655,0.074,0.0859,0.0932,0.0939,0.0942,0.0884,0.0846,0.0781,0.087,0.0722,0.0704,0.0725,0.0816,0.0701,0.0984,0.0981,0.1003,0.1056,0.088,0,0,0,0,0]},{"header":{"parameterUnit":"m.s-1","parameterCategory":2,"la1":30.2991,"la2":30.254,"lo1":-89.0895,"lo2":-89.0444,"dy":0.0017,"dx":0.0017,"nx":28,"ny":28,"refTime":"2024-11-24T09:00:00:Z","depth":"2","parameterNumber":3,"parameterNumberName":"V-component_of_CURRENTS"},"data":[0,0,0,0,0,0,0,0,0,0,0,0,0,0,0,0,0,0,0,0,0,0,0,0,0,0,0,0,0,0,0,0,0,0,0,0,0,0,0,0,0,0,0,0,0,0,0,0,0,0,0,0,0,0,0,0,0,0,0.0331,0.033,0,0.0276,0.0275,0.0275,0.0152,0.015,0.0147,0.0145,-0.008,-0.0084,-0.0087,0,0,0,0,0,0,0,0,0,0,0,0,0,0.0322,0.0322,0.0331,0.033,0.033,0.0276,0.0275,0.0274,0.0152,0.015,0.0147,0.0144,-0.0079,-0.0083,-0.0088,0,0,0,0,0,0,0,0,0,0,0,0,0,0.03,0.0322,0.0331,0.0265,0.0258,0.0277,0.0275,0.0274,0.0153,0.015,0.0146,0.0143,-0.0077,-0.0083,-0.0088,-0.0057,0,0,-0.0106,-0.0109,0,0,0,0,0,0,0,0,0.0301,0.03,0.0275,0.0269,0.0262,0.022,0.019,0.0156,0.0154,0.019,0.0145,0.0141,0.0009,-0.0004,-0.0009,-0.0068,-0.0077,-0.0107,-0.011,-0.0113,-0.0115,0,0,0,0,0,0,0,0.0303,0.0301,0.0306,0.0275,0.0267,0.0236,0.0228,0.0183,0.0114,0.0186,0.0178,0.0178,0.0003,-0.0002,-0.0015,-0.0081,-0.0107,-0.0112,-0.0115,-0.0118,-0.0241,-0.0241,0,0,0,0,0,0,0.032,0.0303,0.0308,0.0305,0.0277,0.0239,0.0231,0.0235,0.0117,0.0099,0.0181,0.0173,0.0009,-0.0008,-0.0024,-0.0066,-0.0113,-0.0118,-0.0122,-0.0242,-0.0241,-0.0241,0,0,0,0,0,0,0.032,0.0321,0.031,0.0304,0.0301,0.0243,0.0248,0.0235,0.0199,0.0116,0.0092,0.0154,0.0006,-0.0016,-0.009,-0.0073,-0.0121,-0.0126,-0.0242,-0.0242,-0.0241,-0.0104,0,0,0,0,0,0,0.032,0.0322,0.0308,0.0306,0.0302,0.0314,0.0251,0.0237,0.0207,0.0195,0.0086,0.0063,0.0002,-0.0081,-0.0096,-0.0082,-0.0131,-0.0242,-0.0242,-0.0241,-0.0109,-0.0099,-0.0091,0,0,0,0,0,0.032,0.0321,0.0308,0.0308,0.0294,0.0315,0.031,0.0255,0.0209,0.0206,0.012,0.0065,-0.009,-0.0085,-0.0103,-0.009,-0.0242,-0.0242,-0.0241,-0.0113,-0.0101,-0.0091,0,0,0,0,0,0,0.0307,0.031,0.0295,0.0294,0.0302,0.0295,0.0279,0.0255,0.0191,0.016,0.007,0.0043,-0.0013,-0.0073,-0.0066,-0.0128,-0.0175,-0.0178,-0.0072,-0.0061,-0.0052,-0.0011,-0.0136,0,0,0,0,0,0.0306,0.03,0.0315,0.0311,0.0319,0.03,0.0292,0.027,0.0229,0.0196,0.0127,0.0044,-0.0014,-0.0058,-0.0117,-0.0147,-0.0179,-0.0154,-0.0144,-0.0136,-0.0116,-0.0157,-0.0149,-0.024,-0.024,-0.024,0,0,0.0299,0.0299,0.0293,0.0307,0.0302,0.0334,0.0284,0.0285,0.0298,0.0183,0.0148,0.0075,-0.0016,-0.0053,-0.0083,-0.0108,-0.0123,-0.0135,-0.0127,-0.0112,-0.0155,-0.0146,-0.0138,-0.0239,-0.0239,-0.0239,0,0,0.031,0.0291,0.0302,0.032,0.0329,0.0335,0.0338,0.0336,0.0311,0.0292,0.0206,0.0148,0.0059,0.0009,-0.0031,-0.0006,-0.0071,-0.004,0.0038,-0.0001,0.0007,0.0013,0.0012,0.0017,-0.0038,-0.0038,-0.0038,0,0.0296,0.0325,0.031,0.0343,0.0362,0.0342,0.0386,0.0379,0.0347,0.0338,0.0289,0.0178,0.0101,0.0063,0.0067,0.002,-0.0011,0.0009,0.0014,0.002,0.0024,0.002,0.0024,-0.0031,-0.0032,-0.0033,-0.0033,0,0.0328,0.0358,0.0372,0.0408,0.0429,0.0461,0.0476,0.0477,0.0448,0.0437,0.0394,0.0301,0.0231,0.0202,0.014,0.013,0.0099,0.0037,-0.0002,0.0042,0.0035,0.0037,-0.0022,-0.0024,-0.0026,-0.0028,0,0,0.0263,0.0378,0.0367,0.0431,0.047,0.0501,0.0533,0.0567,0.0579,0.0538,0.0545,0.0456,0.0398,0.0349,0.0264,0.0234,0.0246,0.0154,0.0149,0.0175,0.0182,0.0186,0.0188,0.0175,0.0175,0.0175,0.0176,0,0.0288,0.0391,0.0422,0.0519,0.0595,0.0607,0.0646,0.0663,0.065,0.065,0.0576,0.0532,0.0455,0.0407,0.0375,0.0264,0.0251,0.0253,0.0116,0.0113,0.0128,0.019,0.0154,0.0153,0.0177,0.0178,0.0178,0,0.0284,0.0373,0.0477,0.0629,0.0652,0.0688,0.0746,0.0778,0.0777,0.0758,0.0718,0.065,0.0599,0.0516,0.0408,0.0405,0.0317,0.0245,0.0241,0.0199,0.012,0.0103,0.0154,0.018,0.018,0.018,0.0179,0,0.0262,0.0401,0.0492,0.0534,0.0682,0.0712,0.0766,0.0791,0.0814,0.0804,0.0804,0.0741,0.0683,0.0586,0.0448,0.0414,0.0339,0.0265,0.0203,0.0203,0.0125,0.0118,0.0208,0.0208,0.0208,0.0208,0.0208,0,0.03,0.0376,0.0484,0.0548,0.0633,0.0721,0.0776,0.0815,0.085,0.0879,0.0836,0.0844,0.0689,0.0626,0.0503,0.0382,0.038,0.0249,0.0207,0.0174,0.0171,0.014,0.0133,0.0208,0.0208,0.0208,0.0208,0,0.0306,0.0373,0.0478,0.0606,0.0635,0.068,0.0784,0.0821,0.0862,0.0898,0.0893,0.0896,0.0825,0.0699,0.0544,0.0444,0.0328,0.028,0.028,0.0239,0.0209,0.0208,0.0223,0.0223,0.0224,0.0224,0.0224,0,0.0353,0.0392,0.0473,0.0495,0.0553,0.0631,0.0675,0.0777,0.083,0.0938,0.0961,0.0934,0.0934,0.0766,0.0554,0.0379,0.0353,0.0253,0.0184,0.0255,0.0212,0.0211,0.0209,0.0141,0.0141,0.014,0.014,0,0.0412,0.0371,0.0443,0.0469,0.0501,0.0572,0.0669,0.0735,0.0856,0.0948,0.1071,0.1098,0.0943,0.0761,0.0524,0.0407,0.0282,0.024,0.03,0.0149,0.0179,0.0136,0.0137,0.0136,0.0136,0.0137,0.0137,0.0137,0.0377,0.0396,0.0398,0.0423,0.045,0.0497,0.0604,0.0729,0.0864,0.1038,0.1087,0.1124,0.0904,0.0576,0.0408,0.0238,0.0246,0.0161,0.0162,0.0163,0.0159,0.0188,0.0149,0.0149,0.0149,0.015,0.015,0,0.0342,0.0337,0.0365,0.0391,0.0418,0.0434,0.0583,0.0729,0.0928,0.1023,0.1141,0.0925,0.0731,0.0536,0.0252,0.0101,0.0077,0.0081,0.0054,0.0059,0.0063,0.0053,0.0015,0.0014,0.0014,0.0013,0,0,0.03,0.0321,0.0338,0.0335,0.0357,0.0454,0.0554,0.0774,0.0908,0.1055,0.106,0.0967,0.073,0.0464,0.0262,0.015,0.0151,0.0137,0.0257,0.0254,0.026,0.0117,0.0109,0,0,0,0,0]}],[{"header":{"parameterUnit":"m.s-1","parameterCategory":2,"la1":30.2991,"la2":30.254,"lo1":-89.0895,"lo2":-89.0444,"dy":0.0017,"dx":0.0017,"nx":28,"ny":28,"refTime":"2024-11-24T09:00:00:Z","depth":"4","parameterNumber":2,"parameterNumberName":"U-component_of_CURRENTS"},"data":[0,0,0,0,0,0,0,0,0,0,0,0,0,0,0,0,0,0,0,0,0,0,0,0,0,0,0,0,0,0,0,0,0,0,0,0,0,0,0,0,0,0,0,0,0,0,0,0,0,0,0,0,0,0,0,0,0,0,-0.0374,-0.0374,0,-0.0383,-0.0383,-0.0383,-0.0371,-0.0371,-0.0371,-0.0371,-0.0354,-0.0354,-0.0354,0,0,0,0,0,0,0,0,0,0,0,0,0,-0.0347,-0.0347,-0.0374,-0.0374,-0.0375,-0.0383,-0.0383,-0.0383,-0.0371,-0.0371,-0.0371,-0.0371,-0.0354,-0.0354,-0.0354,0,0,0,0,0,0,0,0,0,0,0,0,0,-0.0354,-0.0347,-0.0374,-0.0373,-0.0373,-0.0383,-0.0383,-0.0382,-0.0371,-0.0371,-0.0371,-0.0371,-0.0355,-0.0354,-0.0354,-0.0353,0,0,-0.0352,-0.0352,0,0,0,0,0,0,0,0,-0.0354,-0.0355,-0.0372,-0.0373,-0.0373,-0.0379,-0.0368,-0.0373,-0.0371,-0.0368,-0.0371,-0.037,-0.0363,-0.0362,-0.0359,-0.0352,-0.0352,-0.0352,-0.0352,-0.0351,-0.0351,0,0,0,0,0,0,0,-0.0353,-0.0354,-0.0374,-0.0373,-0.0373,-0.0372,-0.0373,-0.0368,-0.0363,-0.0368,-0.0368,-0.0375,-0.0362,-0.0359,-0.0358,-0.0351,-0.0352,-0.0352,-0.0351,-0.0351,-0.0397,-0.0399,0,0,0,0,0,0,-0.036,-0.0354,-0.0373,-0.0374,-0.0367,-0.0373,-0.0373,-0.0374,-0.0363,-0.0363,-0.0375,-0.0375,-0.036,-0.0359,-0.0358,-0.0425,-0.0351,-0.0351,-0.0351,-0.0396,-0.0398,-0.0399,0,0,0,0,0,0,-0.0359,-0.0361,-0.0373,-0.0368,-0.0369,-0.0374,-0.0375,-0.0374,-0.0385,-0.037,-0.0368,-0.0388,-0.036,-0.0358,-0.0369,-0.0422,-0.0351,-0.035,-0.0394,-0.0396,-0.0398,-0.0516,0,0,0,0,0,0,-0.0358,-0.036,-0.036,-0.0368,-0.037,-0.0391,-0.0375,-0.0375,-0.0391,-0.039,-0.038,-0.0377,-0.036,-0.037,-0.0369,-0.042,-0.035,-0.0392,-0.0395,-0.0398,-0.051,-0.0522,-0.0532,0,0,0,0,0,-0.0357,-0.036,-0.036,-0.0363,-0.0371,-0.0392,-0.0393,-0.0393,-0.0392,-0.0401,-0.0397,-0.0378,-0.0388,-0.0371,-0.0369,-0.0421,-0.0391,-0.0394,-0.0397,-0.0505,-0.052,-0.0532,0,0,0,0,0,0,-0.035,-0.036,-0.036,-0.0366,-0.0384,-0.0392,-0.0399,-0.0405,-0.0408,-0.0416,-0.0392,-0.0389,-0.0423,-0.0398,-0.038,-0.0441,-0.0389,-0.0392,-0.0472,-0.0485,-0.0496,-0.0445,-0.0349,0,0,0,0,0,-0.0349,-0.0354,-0.0369,-0.0377,-0.0386,-0.0396,-0.0405,-0.0419,-0.0426,-0.0428,-0.0431,-0.043,-0.0434,-0.044,-0.044,-0.0467,-0.0431,-0.0499,-0.051,-0.052,-0.0477,-0.0491,-0.0499,-0.0411,-0.0411,-0.0411,0,0,-0.0353,-0.0358,-0.0362,-0.0377,-0.0387,-0.0421,-0.0401,-0.0433,-0.0472,-0.0426,-0.0477,-0.0471,-0.0449,-0.0486,-0.05,-0.0474,-0.0533,-0.0524,-0.0533,-0.0483,-0.0495,-0.0504,-0.0511,-0.0413,-0.0413,-0.0412,0,0,-0.0369,-0.0366,-0.0379,-0.0402,-0.0434,-0.0448,-0.0464,-0.0496,-0.0514,-0.0551,-0.0542,-0.0561,-0.0564,-0.0574,-0.057,-0.0637,-0.0592,-0.0646,-0.0662,-0.068,-0.0687,-0.0692,-0.0687,-0.0691,-0.0652,-0.0652,-0.0652,0,-0.0371,-0.0392,-0.039,-0.0421,-0.0448,-0.0466,-0.0507,-0.0534,-0.0575,-0.059,-0.058,-0.0602,-0.0604,-0.0636,-0.0653,-0.0665,-0.0641,-0.0621,-0.0694,-0.0699,-0.0702,-0.0695,-0.0698,-0.0658,-0.0658,-0.0657,-0.0656,0,-0.0405,-0.0431,-0.0447,-0.049,-0.0519,-0.056,-0.0603,-0.0643,-0.0664,-0.0683,-0.0721,-0.0718,-0.0704,-0.0745,-0.0706,-0.0745,-0.0711,-0.0712,-0.0662,-0.0718,-0.0707,-0.0708,-0.0667,-0.0665,-0.0663,-0.0662,0,0,-0.0386,-0.0453,-0.0462,-0.0495,-0.0563,-0.059,-0.0661,-0.071,-0.0743,-0.0781,-0.0806,-0.0828,-0.0794,-0.0782,-0.0774,-0.0792,-0.0823,-0.0745,-0.0743,-0.0738,-0.0831,-0.0692,-0.0679,-0.0833,-0.0833,-0.0833,-0.0824,0,-0.0414,-0.0472,-0.051,-0.0589,-0.0622,-0.0672,-0.0728,-0.0783,-0.081,-0.0845,-0.0851,-0.0855,-0.082,-0.0801,-0.0818,-0.0812,-0.0822,-0.0822,-0.0772,-0.077,-0.064,-0.0675,-0.0834,-0.0824,-0.0824,-0.0824,-0.0824,0,-0.0434,-0.0471,-0.0533,-0.0624,-0.0644,-0.0688,-0.0759,-0.0813,-0.0864,-0.0876,-0.0874,-0.0861,-0.0862,-0.0832,-0.0831,-0.0822,-0.0804,-0.0815,-0.0815,-0.0626,-0.063,-0.0746,-0.0824,-0.0824,-0.0824,-0.0824,-0.0824,0,-0.0396,-0.0494,-0.0535,-0.0569,-0.0666,-0.0694,-0.0736,-0.0801,-0.0846,-0.0858,-0.0872,-0.0871,-0.0852,-0.0843,-0.0813,-0.0813,-0.0822,-0.0842,-0.0711,-0.0702,-0.0778,-0.0772,-0.0836,-0.0836,-0.0836,-0.0837,-0.0837,0,-0.0397,-0.0442,-0.0511,-0.0532,-0.0588,-0.0655,-0.0707,-0.0746,-0.0806,-0.0808,-0.0843,-0.0814,-0.0845,-0.0846,-0.0824,-0.0741,-0.0822,-0.0683,-0.0681,-0.0833,-0.0833,-0.078,-0.0774,-0.0836,-0.0836,-0.0836,-0.0836,0,-0.0351,-0.04,-0.0457,-0.054,-0.0563,-0.0587,-0.0681,-0.0719,-0.0763,-0.0761,-0.0748,-0.0782,-0.0712,-0.0765,-0.0756,-0.0732,-0.0699,-0.0658,-0.0799,-0.0811,-0.0568,-0.0568,-0.0499,-0.0494,-0.049,-0.0486,-0.0483,0,-0.0339,-0.0347,-0.0429,-0.0453,-0.0483,-0.0534,-0.0572,-0.066,-0.0661,-0.0686,-0.065,-0.0636,-0.0615,-0.0538,-0.0575,-0.0556,-0.0544,-0.0562,-0.0559,-0.0523,-0.053,-0.0537,-0.0543,-0.0476,-0.0475,-0.0474,-0.0473,0,-0.0304,-0.0317,-0.0355,-0.0393,-0.0429,-0.0478,-0.0493,-0.0511,-0.0549,-0.0613,-0.0499,-0.0472,-0.0411,-0.0395,-0.0405,-0.0388,-0.0575,-0.0517,-0.0526,-0.0523,-0.0495,-0.0507,-0.0518,-0.0457,-0.046,-0.0461,-0.0462,0,-0.027,-0.0276,-0.0305,-0.0342,-0.0392,-0.0386,-0.0422,-0.0389,-0.0418,-0.042,-0.0345,-0.0332,-0.0337,-0.03,-0.0287,-0.0278,-0.0259,-0.0283,-0.0304,-0.0322,-0.0267,-0.0206,-0.0054,0,0,0,0,0,-0.0228,-0.022,-0.0256,-0.0292,-0.034,-0.0349,-0.0364,-0.039,-0.0412,-0.0294,-0.032,-0.0222,-0.017,-0.018,-0.0128,-0.0218,-0.0292,-0.016,-0.034,-0.0373,-0.0391,-0.0343,0,0,0,0,0,0,-0.0207,-0.021,-0.0234,-0.0246,-0.0255,-0.0281,-0.0289,-0.0292,-0.0216,-0.0225,-0.0193,-0.0187,-0.0151,-0.0175,-0.0113,-0.0117,-0.0219,-0.0154,-0.0152,-0.0363,-0.0379,-0.0393,-0.0351,0,0,0,0,0]},{"header":{"parameterUnit":"m.s-1","parameterCategory":2,"la1":30.2991,"la2":30.254,"lo1":-89.0895,"lo2":-89.0444,"dy":0.0017,"dx":0.0017,"nx":28,"ny":28,"refTime":"2024-11-24T09:00:00:Z","depth":"4","parameterNumber":3,"parameterNumberName":"V-component_of_CURRENTS"},"data":[0,0,0,0,0,0,0,0,0,0,0,0,0,0,0,0,0,0,0,0,0,0,0,0,0,0,0,0,0,0,0,0,0,0,0,0,0,0,0,0,0,0,0,0,0,0,0,0,0,0,0,0,0,0,0,0,0,0,0.0292,0.0292,0,0.0303,0.0303,0.0304,0.036,0.0361,0.0362,0.0363,0.0421,0.0421,0.0421,0,0,0,0,0,0,0,0,0,0,0,0,0,0.0335,0.0334,0.0292,0.0292,0.0292,0.0303,0.0304,0.0304,0.036,0.0361,0.0362,0.0364,0.042,0.0421,0.0421,0,0,0,0,0,0,0,0,0,0,0,0,0,0.033,0.0333,0.0292,0.032,0.0322,0.0303,0.0304,0.0304,0.0359,0.0361,0.0363,0.0364,0.042,0.0421,0.0422,0.0391,0,0,0.0424,0.0424,0,0,0,0,0,0,0,0,0.033,0.0328,0.0316,0.0318,0.0321,0.033,0.0339,0.0335,0.0359,0.0347,0.0363,0.0365,0.0392,0.0395,0.0395,0.0394,0.0396,0.0424,0.0424,0.0424,0.0424,0,0,0,0,0,0,0,0.033,0.0328,0.0298,0.0316,0.0318,0.0337,0.0338,0.0339,0.0362,0.0348,0.0352,0.035,0.0394,0.0395,0.0397,0.0397,0.0424,0.0424,0.0425,0.0425,0.0419,0.0419,0,0,0,0,0,0,0.0322,0.0328,0.0298,0.0299,0.0327,0.0334,0.0336,0.0327,0.0361,0.0367,0.0348,0.0352,0.0393,0.0396,0.04,0.0413,0.0424,0.0425,0.0425,0.042,0.0419,0.0419,0,0,0,0,0,0,0.0323,0.0319,0.0298,0.0313,0.0311,0.0332,0.0321,0.0326,0.0339,0.036,0.0368,0.0357,0.0394,0.0399,0.0404,0.0414,0.0425,0.0426,0.0421,0.042,0.0419,0.041,0,0,0,0,0,0,0.0324,0.0319,0.0313,0.0312,0.031,0.028,0.0319,0.0325,0.0333,0.0339,0.0369,0.0376,0.0396,0.0403,0.0405,0.0416,0.0426,0.0421,0.042,0.0419,0.0411,0.0409,0.0408,0,0,0,0,0,0.0325,0.0306,0.0313,0.031,0.03,0.0279,0.0279,0.0302,0.0331,0.0323,0.0351,0.0376,0.0398,0.0402,0.0405,0.0416,0.0422,0.0421,0.0419,0.0412,0.041,0.0408,0,0,0,0,0,0,0.0319,0.031,0.0317,0.0297,0.0286,0.0288,0.0285,0.03,0.0314,0.0337,0.0361,0.0368,0.0387,0.0388,0.0392,0.041,0.0417,0.0416,0.041,0.0408,0.0406,0.0367,0.0427,0,0,0,0,0,0.0312,0.0299,0.029,0.0272,0.0269,0.0278,0.0277,0.0294,0.0303,0.0314,0.0342,0.0366,0.0378,0.0383,0.0401,0.0394,0.0391,0.0403,0.0402,0.04,0.0368,0.0378,0.0375,0.0415,0.0415,0.0415,0,0,0.0304,0.0297,0.029,0.0271,0.0271,0.0251,0.0282,0.0282,0.0275,0.0316,0.0331,0.0367,0.0377,0.0387,0.0394,0.0391,0.039,0.0399,0.0397,0.0366,0.0377,0.0373,0.0369,0.0414,0.0414,0.0414,0,0,0.0275,0.0275,0.0256,0.0244,0.0242,0.0242,0.024,0.0255,0.0272,0.0279,0.0319,0.0348,0.0365,0.0377,0.038,0.0367,0.0389,0.0386,0.0336,0.0347,0.0344,0.0341,0.0345,0.0343,0.0375,0.0375,0.0375,0,0.0268,0.024,0.0245,0.0222,0.0208,0.0234,0.0208,0.0216,0.0238,0.0241,0.0284,0.0321,0.0353,0.0337,0.0346,0.0364,0.0368,0.0349,0.0345,0.0342,0.0339,0.0344,0.0341,0.0374,0.0374,0.0374,0.0375,0,0.0223,0.0204,0.019,0.0168,0.0152,0.0136,0.0141,0.0149,0.0186,0.0199,0.0221,0.0269,0.0282,0.0312,0.0325,0.0318,0.0329,0.0354,0.0352,0.0335,0.0341,0.0338,0.0374,0.0374,0.0374,0.0374,0,0,0.0206,0.0165,0.0169,0.014,0.0127,0.0105,0.0091,0.0073,0.0066,0.0116,0.0105,0.0154,0.0198,0.0201,0.0243,0.0252,0.0263,0.0287,0.0288,0.0292,0.028,0.022,0.0212,0.0294,0.0293,0.0293,0.0298,0,0.0173,0.0121,0.0112,0.0057,0.0022,0.0028,0.0003,-0.0001,0.0021,0.0024,0.0071,0.0096,0.0148,0.0179,0.019,0.0247,0.0252,0.0258,0.0293,0.0293,0.0244,0.0205,0.029,0.0296,0.0295,0.0295,0.0294,0,0.0147,0.0105,0.0063,-0.0011,-0.0023,-0.0032,-0.0065,-0.0085,-0.0082,-0.0062,-0.004,0.0001,0.0021,0.0088,0.0134,0.0137,0.0194,0.0238,0.0241,0.0175,0.0227,0.0313,0.029,0.029,0.029,0.0291,0.0291,0,0.0141,0.0071,0.0039,0.0019,-0.0047,-0.0049,-0.0072,-0.0083,-0.0107,-0.0093,-0.0092,-0.0073,-0.0032,0.0014,0.0107,0.0124,0.016,0.0203,0.0193,0.0191,0.0251,0.0254,0.0224,0.0224,0.0224,0.0224,0.0224,0,0.0105,0.0077,0.0049,0.0028,-0.0012,-0.005,-0.0079,-0.0091,-0.0118,-0.0145,-0.0115,-0.0125,-0.0044,-0.0012,0.0064,0.0102,0.0129,0.0153,0.0174,0.025,0.0252,0.025,0.0253,0.0225,0.0225,0.0224,0.0224,0,0.0115,0.0094,0.0058,0.0008,-0.0003,-0.0011,-0.0073,-0.0113,-0.0121,-0.0151,-0.0146,-0.0155,-0.0126,-0.0063,0.002,0.0052,0.0102,0.0121,0.0176,0.0207,0.0134,0.0137,0.0079,0.0077,0.0075,0.0073,0.0071,0,0.0111,0.0103,0.0081,0.0076,0.0073,0.0038,-0.0003,-0.0074,-0.0112,-0.0171,-0.0184,-0.0186,-0.0177,-0.01,-0.006,0.0022,0.0054,0.0074,0.0101,0.0085,0.0113,0.0119,0.0124,0.0068,0.0068,0.0067,0.0067,0,0.0107,0.0146,0.0113,0.0126,0.0107,0.0023,-0.0023,-0.0038,-0.0123,-0.0172,-0.0176,-0.0171,-0.0164,-0.012,-0.0062,0.0004,0.0046,0.0053,0.0059,0.0085,0.0072,0.0103,0.011,0.006,0.0061,0.0061,0.0062,0,0.0148,0.0138,0.0152,0.0167,0.0145,0.0097,0.0023,-0.0027,-0.0083,-0.0126,-0.0142,-0.0137,-0.0156,-0.0134,-0.0088,-0.0044,-0.003,0.0015,0.0023,0.0031,0.0005,-0.0018,-0.0069,0,0,0,0,0,0.0189,0.0191,0.0183,0.0174,0.0164,0.016,0.0051,-0.0034,-0.0102,-0.0087,-0.0102,-0.0091,-0.0079,-0.01,-0.0059,-0.0142,-0.0036,-0.01,0.002,0.0021,0.0029,-0.0,0,0,0,0,0,0,0.0206,0.0216,0.0195,0.023,0.0255,0.0181,0.0148,0.0049,0.0055,0.001,0.0028,-0.0051,-0.0029,-0.0043,-0.0027,-0.0038,0.0043,-0.0122,-0.0122,0.0016,0.0024,0.003,0.0003,0,0,0,0,0]}]]